timestamp,gas_concentrations,,corrected_fluxes_and_quality_flags,,,,,,,,,,storage_terms,,,turbulence,,,footprint,,
ISOdate,CO2_1_1_1,H2O_1_1_1,Tau_1_1_1,QcTau_1_1_1,H_1_1_1,QcH_1_1_1,LE_1_1_1, QcLE_1_1_1,Fc_1_1_1, QcFc_1_1_1,E_1_1_1, QcE_1_1_1,Sa_1_1_1,Sw_1_1_1,Sc_1_1_1,ustar_1_1_1,MO_length_1_1_1,ZL_1_1_1,Fetchmax_1_1_1,Fetch70_1_1_1,Fetch90_1_1_1
yyyymmddHHMM,[µmol+1mol_a-1],[mmol+1mol_a-1],[kg+1m-1s-2],[#],[W+1m-2],[#],[W+1m-2],[#],[µmol+1s-1m-2],[#],[mmol+1s-1m-2],[#],[W+1m-2],[W+1m-2],[µmol+1s-1m-2],[m+1s-1],[m],[#],[m],[m],[m]
201209150030,373.04365247477187,9.2253534747750479,1.37939986986817947E-002,0,-13.932147982863567,0,7.3542820718546142,0,1.3416619850094742,0,0.16454635961821526,0,-9999.,-9999.,-9999.,0.10753327953734472,7.6009472007415670,2.8417510909551709,524.33007959097188,4420.0000000000000,-9999.
201209150100,372.91914420425974,8.9927910694562119,6.34010591130696431E-003,1,-8.3052398906568445,1,7.1537423010479015,1,1.1214587379052052,1,0.16002841720235739,1,-4.7559565679294842,-8.3585006114015190,-0.10010387444204774,7.28828820740446554E-002,3.9690284566958205,5.4421378520379271,846.34496831949878,6611.0000000000000,-9999.
201209150130,373.97820061759847,9.0465338931781591,1.82606968451638554E-002,0,-24.327679738976752,0,8.9524594778041280,1,1.3867283915595345,0,0.20027049437117006,1,0.60929138093065272,1.9306746723827464,0.85110338676151898,0.12371863332219232,6.6261601894520812,3.2598064916064322,652.44189413112645,5493.0000000000000,-9999.
201209150200,375.28090747933481,9.4109306541098725,3.20159395566675248E-002,0,-20.239647978998203,0,15.030929049494643,0,2.7615186375597940,0,0.33617244003721702,0,-5.5572672796323666,13.100794888543014,1.0474809213931986,0.16378400746669827,18.475712517763075,1.1691024083229888,503.37050489977361,5065.0000000000000,-9999.
201209150230,376.22349208579084,9.3167103611651072,0.13336307492890090,1,-1.5650407105141608,2,25.506384470656670,1,2.1125197651145635,1,0.57008752348070135,1,-16.075787620070674,-3.3975532092266025,0.75968717445330269,0.33388037184713587,2023.9241177046122,1.06723368781716753E-002,123.34862580721077,225.52062800204266,337.87099598601515
201209150300,378.41130403292715,9.0335247404543022,0.10744524510231340,0,-31.942732356641557,0,-4.6639413792685716,1,2.2351546737635859,0,-0.10416121939426655,1,-19.318692222627966,-10.249047992282476,1.7683787650157547,0.29923881789903739,71.381854391493633,0.30259791068938680,116.88059563206177,213.69500596945014,320.15405927071822
201209150330,379.60270777094644,8.9539038353541631,0.14964343049464363,0,-47.941971820012782,0,-4.0633353068966036,1,4.3069480298363514,0,-9.07296151865695788E-002,1,-4.9302025632552473,-2.8847708326061285,0.96385027049015348,0.35298312286715960,78.070686104784883,0.27667234755704495,123.22321480708810,225.29133669603141,337.52747582726386
201209150400,378.82583018755855,8.8828491700984955,0.10481469752317511,0,-40.979270180679826,0,5.8701191423595604,1,4.5205723324161999,0,0.13109294360129578,1,3.7563880794359110,-2.5725290700573429,-0.62813455114312144,0.29549872622392614,53.584409092169821,0.40310232707514104,115.22976042288232,210.67675270018452,315.63216587560242
201209150430,379.69627930992328,8.8072542570493315,7.09169643421826007E-002,0,-19.250983486540015,0,-2.8813546492447424,0,1.2676198980522120,0,-6.43347870349668532E-002,0,-4.7420755890244832,-2.7394227022119901,0.70430216231807241,0.24297164409032612,63.408140879648258,0.34065026509762925,113.68360725964179,207.84989159752143,311.39701282227611
201209150500,378.71653182234058,8.7928843235981411,5.33095367002820383E-002,0,-20.838741808626345,0,-1.8878717300945893,0,1.9245342540929820,0,-4.21420606871147213E-002,0,-6.0373265869002513,-0.52134839132531208,-0.79347038930768110,0.21056264440534805,38.124417551404157,0.56656603267121797,107.42557862067771,196.40821934962969,294.25530284927214
201209150530,378.71060341495269,8.7652488418256702,0.11274045992575027,1,-33.913046973573223,0,-3.1764258668411305,0,3.2328704182356107,0,-7.09070572008512479E-002,0,0.42509536403710568,-1.0027163056108754,-4.80175297985197761E-003,0.30619203704096859,72.043693186081271,0.29981805547099699,118.10452439926422,215.93273810795546,323.50658978238329
201209150600,377.47292992750255,8.7668715687032552,9.93183084413787054E-002,1,-30.047840734968027,0,-0.31755802536260253,0,2.8998580681390260,0,-7.08927764949106223E-003,0,1.6055201458425092,5.88600619787079879E-002,-1.0022135413205242,0.28742370272823592,67.256592756022144,0.32115810680977352,113.10663127241077,206.79499547581020,309.81658620471131
201209150630,377.46441864970751,8.8055980108991569,0.12740571983415200,0,-13.666709218998587,1,6.9379407123782881,1,-0.10526233129537577,2,0.15493630013752221,1,8.1832319939288602,1.4025634195977261,-6.88386381059881338E-003,0.32573461565576162,215.24329792958318,0.10035155662345611,123.29194700619475,225.41700107700896,337.71574396901656
201209150700,374.33978869588668,9.0387561572621458,0.21639221429543434,0,-1.7007671957772272,2,15.094775674918230,0,-1.5437151003525353,1,0.33737127717529947,0,20.358383934011034,8.4103390776466167,-2.5190857153325341,0.42521252697628342,3847.3590876302906,5.61424070590305080E-003,121.75859927068882,222.61355238032641,333.51566696614810
201209150730,372.99543689041434,9.1811328280299112,0.27967539551812848,0,11.076238064804381,2,27.248898466580293,0,-3.2852248437390843,0,0.60972102631689051,0,28.255009873506033,5.1065154805095325,-1.0788994592383383,0.48452060729453711,-873.92516337306222,-2.47160751346615776E-002,118.85176355981758,217.29892961315389,325.55339360985778
201209150800,371.70981303804848,9.2503487823543686,0.38284138941219492,0,47.358841846047106,0,44.353955560831139,0,-5.9300101525616462,0,0.99352979737089242,0,26.167967726040349,2.4690742256646083,-1.0272836969227648,0.56812781248504274,-329.43054318528704,-6.55676908132078046E-002,124.08905641478682,226.87437130092201,339.89915013206343
201209150830,370.57174359417110,9.1535569684920972,0.41729196267162905,0,38.515631688163019,1,70.235438855104150,0,-5.9213050606256941,0,1.5750069468515335,0,26.658095247236194,-3.4340436313238363,-0.90544508712549820,0.59441560712507235,-463.84765027272016,-4.65670139480069342E-002,118.60394114439846,216.84583119886224,324.87456961990762
201209150900,369.45462607533170,9.2045646364665323,0.41223253866337034,1,131.67569415458360,0,82.353401220911039,0,-12.020760391977660,0,1.8493104925216350,0,33.387606620649841,1.7975981058041675,-0.88406518732824979,0.59237878209648431,-134.26987359063924,-0.16087004048170839,119.42304670734687,218.34341740825226,327.11822665751106
201209150930,370.17319996736461,9.3748986252076136,0.28905376053917381,1,155.11314906228293,0,87.247234681180757,0,-9.6369877420528987,0,1.9617037832079347,0,30.495879351983380,5.9649584315072941,0.56579525086335380,0.49731377497929424,-67.425345247510279,-0.32035431069294518,113.89624113857933,208.23865414431665,311.97944995918664
201209151000,370.14571867552939,9.0908648000638284,0.78720135485493337,0,183.90390379333570,0,133.99795170601706,0,-13.388259229542445,0,3.0150052689558486,0,16.912071480989916,-9.9103090595726222,-2.15746716910153770E-002,0.82186615417484776,-256.60327048825036,-8.41766356247164310E-002,133.85131816443450,244.72289929297170,366.63949749178914
201209151030,367.39038551289150,9.5047250804177406,0.39074967410946115,0,146.05591457022766,0,85.562204010378224,0,-11.115721828331232,0,1.9270427828149694,0,22.912956434767636,14.368885591662425,-2.1545315203233577,0.58023744605895655,-113.66719853999892,-0.19002843632500602,106.37524299542845,194.48787083930779,291.37827084749517
201209151100,365.31034586093597,9.6119567002736570,0.44134989846625744,0,145.02743224984957,0,139.17701691770685,0,-11.954281029928568,0,3.1366481488952003,0,15.720914385544289,3.7095416310495484,-1.6216879061762079,0.61758725827681105,-137.98199013316048,-0.15654216886678304,114.59950323059657,209.52444154246444,313.90579378275260
201209151130,365.20961439906762,9.5403045950228478,0.50357808581867147,0,197.16425003818043,0,134.45758393948711,0,-13.183288697863611,0,3.0328409526480198,0,19.834917593419938,-2.4678779767737864,-7.82571804453326969E-002,0.66084958326448162,-124.30849985941842,-0.17376124741612708,115.58714539787817,211.33016641656860,316.61109869031418
201209151200,365.02804263419245,9.7149823621285680,0.59518109279832199,0,236.37158185814155,0,172.84335478485977,0,-17.243902655500271,0,3.9021582190885131,0,20.923789231018613,5.9893904600423316,-0.14055474033576368,0.71976231829629655,-133.93346581765294,-0.16127410627458758,118.19093154520948,216.09071792888915,323.74327234183443
201209151230,365.12893401544841,10.016525933154707,0.46341795549428105,0,191.22299010145531,0,127.22024746321323,0,-13.627038272594895,0,2.8738294721511610,0,13.581305733416132,10.306758637059938,7.78988162757169311E-002,0.63596910697435283,-114.17077694715353,-0.18919026897748134,121.01615633258831,221.25612989944847,331.48200073503119
201209151300,366.31989536154964,10.069878871703869,0.60371525937961656,0,210.68385337131437,0,174.23718488891271,0,-17.515916310616682,0,3.9396412597275683,0,22.004666940748177,1.8149913911934126,0.91607224014969857,0.72726457280341117,-154.92233690675383,-0.13942469776324651,112.31493502988742,205.34752224591153,307.64800754216645
201209151330,367.28811029401976,10.519046670901528,0.59679379928059972,1,173.65564201852538,0,155.73830163929762,0,-9.4363534577121477,0,3.5235353278252344,0,14.263098029898044,15.229030536779481,0.74270887845895550,0.72413266860843506,-185.48179534769309,-0.11645347706231726,116.92251553298033,213.77164891799592,320.26888437381365
201209151400,366.96557774761277,10.776143892975490,0.83088608813271136,0,227.77249245521958,0,193.86972277940365,0,-15.523661084743328,0,4.3865390611208044,0,1.5356329837287508,8.7097792847753173,-0.24722667193262396,0.85479202160841905,-232.52823988232416,-9.28919429783287287E-002,138.61830122179887,253.43846467310149,379.69700261517414
201209151430,365.85865420084463,10.969195186666557,0.40755932355803287,0,111.98852649087499,0,114.72305665311421,0,-9.7022387576967617,0,2.5963721974051959,0,5.5471203445078503,6.5305953791313520,-0.84744969281533200,0.59905098654041156,-162.74863464114915,-0.13272000743739995,112.60380981033700,205.87567747645917,308.43928032001065
201209151500,366.05856340929535,10.860072651268984,0.52549670626652867,0,105.58510064310856,0,130.99793617880741,0,-9.2502381095859025,0,2.9664705731176464,0,13.765335394114899,-3.6807518766733676,0.15269699299400297,0.68099462021089652,-253.55116672207950,-8.51899057663419168E-002,109.74925124208576,200.65663399893549,300.62020215644122
201209151530,366.83227967347301,10.831182849983607,0.39520266030060780,0,85.898310756481223,0,132.36914701336786,0,-7.8564978772837382,0,2.9985175135808517,0,7.6397996052498334,-0.97264458481996063,0.59008036584297219,0.59101751730376284,-203.67605038933831,-0.10605076030642963,107.06995068462281,195.75801806080850,293.28118283643050
201209151600,367.20088062675677,10.858011633215312,0.39375622785175185,0,51.460319323159489,0,87.461024091477086,0,-4.5719095070710818,0,1.9814359429262607,0,2.4165079581593747,0.90258417180950534,0.28093682457927294,0.59012629284563556,-338.38067664508139,-6.38334322578817809E-002,109.31858592449035,199.86924044471289,299.44054313032433
201209151630,367.79165172400383,11.147435542736181,0.32814185085034381,0,22.518562275940472,0,78.584949094604440,0,-5.4412498119013133,0,1.7806165694633227,0,3.4663822975476148,9.7273144654578303,0.44989257368743979,0.53897328315312854,-589.02277346463291,-3.66709081092888231E-002,113.52743598384734,207.56436069709542,310.96923550289563
201209151700,369.32861921926815,11.105529039562542,0.23507289183437807,0,-13.340103840424582,0,59.365285176998569,0,-3.7509272766954451,0,1.3445693225612576,0,-9.5509210807825156,-1.4106746079346610,1.1718195751368070,0.45591198078113448,601.66762095482420,3.59002200678866581E-002,113.77188581172173,208.01129294572368,311.63882145305951
201209151730,369.63550991729988,11.359761945886415,8.44677303876198299E-002,0,-18.458504994026111,0,21.124954705955531,0,-0.94515179972719432,1,0.47815900242212184,0,-14.547476498915316,8.5799625785869225,0.23443038823106391,0.27304174359295075,93.386026006638247,0.23129798882827060,113.18432268941437,206.93704016449934,310.02939503229891
201209151800,369.77982258418660,11.310870719461070,6.97933605372494797E-002,1,-37.114162315684311,0,22.716196326131065,0,8.83130803416938281E-002,0,0.51402106796352842,0,-6.9752404511256039,-1.6519770653795098,0.11033742406926839,0.24808045864062303,34.831261241356778,0.62013258292103746,119.13118645977049,217.80980379163094,326.31877622268030
201209151830,370.60267573375910,11.578826668895360,5.21520361368265559E-002,0,-30.911385423784754,0,9.7929027856419175,0,0.96873877769842487,0,0.22141369993730928,0,-18.783592261829018,9.0859854670052975,0.63084696132028883,0.21416652367244571,26.905069629452282,0.80282267607867630,119.95795284776757,219.32139643250480,328.58341744695247
201209151900,371.12837318244431,11.624221694373954,5.83726474902803161E-002,1,-46.999247871322062,1,12.214312949790495,1,1.5507246710400113,1,0.27604151290634260,1,-10.029335717997011,1.5422382157079406,0.40363091410653668,0.22641278978651447,20.907177029825384,1.0331380448535095,156.35107724872930,1354.0000000000000,6366.0000000000000
201209151930,372.22391401171166,11.563656061562172,5.86711606711431133E-002,1,-52.836573885741167,0,14.241244563890438,0,2.3227682891911559,0,0.32164918831237471,0,-14.511209370874383,-2.0633874122682565,0.84298063958759561,0.22674272677071669,18.677656410176841,1.1564620060272055,206.46437243126113,1824.0000000000000,8714.0000000000000
201209152000,375.75493619640321,11.432818652342041,9.15856893767899860E-002,0,-48.434560712103455,0,14.858441817176550,0,1.9375854316776167,0,0.33527890776263475,0,-21.598157787469596,-4.4756686325452666,2.7255829279046409,0.28283886376584016,39.541730513239408,0.54625833820722303,118.44335658546026,216.55223140930499,324.43470363426439
201209152030,377.66793302254251,11.250143590329815,0.14886749132169769,1,-74.408501978478370,0,14.430138177719087,0,2.7808846980299533,0,0.32541128863711838,0,-14.607088760768891,-6.2651750450901069,1.4795522964510543,0.36023141750685894,53.163847634608494,0.40629113506711045,121.01113027694279,221.24694066675022,331.46823358995175
201209152100,380.12961005078796,11.325329133107731,0.15845769908046173,0,-69.075995552838464,0,22.472004308709991,0,4.0302959422119908,0,0.50638716304005227,0,-17.380038733075668,2.5868814033811618,1.9085965333617450,0.37120261869475940,62.652289913028298,0.34475994460831938,116.19317581904215,212.43818330994574,318.27110990370647
201209152130,381.09139958221937,11.057094831794336,0.20464092666658509,0,-84.717237329214015,0,24.183853176500840,0,6.1192177192202841,0,0.54475913110353591,0,-8.7715031122899543,-9.2433554508899434,0.74657665706009058,0.42157304581845334,74.817579368156316,0.28870220317757755,108.98047438870073,199.25106472214594,298.51440325155374
201209152200,381.99537706128774,11.051291433410020,0.18901897501021941,0,-71.550754759246544,0,17.278254158267981,0,5.4557298731631292,0,0.38905520963971679,0,-9.0995903800818496,-0.20030734990894442,0.70256011159260134,0.40491424323682046,78.483031801403541,0.27521872568146277,113.86528974966670,208.18206513394520,311.89466930978239
201209152230,380.89844403228727,10.763283134599217,0.21364259516262968,0,-83.448642654232302,0,27.183686618711164,0,7.9693859463288277,0,0.61204447440002041,0,-1.9952919964718074,-9.9422652356374623,-0.85257988670708795,0.43044332961221449,80.822755062193451,0.26725146876493766,107.25538271832029,196.09704695892134,293.78910990495740
201209152300,380.09368437985336,10.484127378253536,0.21905571548263750,0,-84.539270674217931,0,27.177432933072964,0,8.5685393469086044,0,0.61197075492566344,0,2.5827189795341465,-9.6282471700048742,-0.62501303245574369,0.43600591971222419,82.887647847922864,0.26059371403119491,107.86492681726608,197.21148797591366,295.45874562615387
201209152330,380.61178650887956,10.373318289750964,0.24805327404815861,0,-92.553832421004060,0,28.488719026216486,0,10.678738342308364,0,0.64139107251408589,0,-3.9207679441420775,-3.8239364856631037,0.40253222459297577,0.46387101844732104,91.156692889235742,0.23695462522149749,108.19261423650154,197.81060508881811,296.35633223471660
201209160000,381.03135528123647,10.242989025994213,0.22981272037985123,0,-73.427422910849941,0,21.793451760265519,0,7.7673841176542169,0,0.49063273815670561,0,-1.0576173221875933,-4.4978336313436866,0.32598311457274981,0.44647558076532529,102.44026204017311,0.21085459534972018,105.20309651604464,192.34481323804857,288.16758004458427
